When you browse on this site, cookies collect data to enhance your experience and personalize the content and advertising you see.
Visit our Privacy Policy to learn more. By continuing to use the site, you agree to this use of cookies and data.
  • In Switzerland
  • List of Countries
  • For 7 days
  • Water Temperature
  • Weather Map
  • Weather Widgets
  • user-avatar
    Login

    Hourly Weather Jewłach

    Today, 27 May, Wednesday

    Time Temperature Precipitation Wind Pressure Humidity
    00:00 +19°C° 0 mm 3 mps 765 mmHg 57%
    01:00 +18°C° 0 mm 3 mps 765 mmHg 58%
    02:00 +18°C° 0 mm 2 mps 765 mmHg 60%
    03:00 +17°C° 0 mm 2 mps 764 mmHg 62%
    04:00 +18°C° 0 mm 2 mps 765 mmHg 60%
    05:00 +19°C° 0 mm 2 mps 765 mmHg 58%
    06:00 +20°C° 0 mm 1 mps 766 mmHg 56%
    07:00 +21°C° 0 mm 2 mps 765 mmHg 51%
    08:00 +24°C° 0 mm 2 mps 765 mmHg 45%
    09:00 +26°C° 0 mm 3 mps 765 mmHg 40%
    10:00 +27°C° 0 mm 3 mps 765 mmHg 37%
    11:00 +29°C° 0 mm 3 mps 764 mmHg 35%
    12:00 +30°C° 0 mm 3 mps 764 mmHg 32%
    13:00 +31°C° 0 mm 3 mps 763 mmHg 30%
    14:00 +31°C° 0 mm 3 mps 763 mmHg 29%
    15:00 +33°C° 0 mm 3 mps 762 mmHg 28%
    16:00 +31°C° 0 mm 2 mps 762 mmHg 29%
    17:00 +31°C° 0 mm 2 mps 762 mmHg 30%
    18:00 +31°C° 0 mm 2 mps 762 mmHg 32%
    19:00 +29°C° 0 mm 1 mps 763 mmHg 36%
    20:00 +27°C° 0 mm 1 mps 763 mmHg 40%
    21:00 +25°C° 0 mm 1 mps 763 mmHg 45%
    22:00 +24°C° 0 mm 2 mps 763 mmHg 48%
    23:00 +23°C° 0 mm 2 mps 763 mmHg 52%

    Tomorrow, 28 May, Thursday

    Time Temperature Precipitation Wind Pressure Humidity
    00:00 +21°C° 0 mm 3 mps 762 mmHg 56%
    01:00 +20°C° 0 mm 2 mps 762 mmHg 57%
    02:00 +21°C° 0 mm 1 mps 762 mmHg 59%
    03:00 +18°C° 0 mm 0 mps 762 mmHg 61%
    04:00 +19°C° 0 mm 0 mps 762 mmHg 59%
    05:00 +20°C° 0 mm 0 mps 761 mmHg 56%
    06:00 +20°C° 0 mm 0 mps 761 mmHg 54%
    07:00 +22°C° 0 mm 0 mps 761 mmHg 50%
    08:00 +26°C° 0 mm 1 mps 761 mmHg 45%
    09:00 +28°C° 0 mm 1 mps 760 mmHg 41%
    10:00 +30°C° 0 mm 1 mps 760 mmHg 37%
    11:00 +31°C° 0 mm 1 mps 760 mmHg 34%
    12:00 +33°C° 0 mm 1 mps 759 mmHg 31%
    13:00 +35°C° 0 mm 2 mps 759 mmHg 29%
    14:00 +35°C° 0 mm 2 mps 758 mmHg 28%
    15:00 +36°C° 0 mm 3 mps 758 mmHg 27%
    16:00 +36°C° 0 mm 3 mps 758 mmHg 28%
    17:00 +35°C° 0 mm 3 mps 758 mmHg 29%
    18:00 +35°C° 0 mm 3 mps 758 mmHg 30%
    19:00 +32°C° 0 mm 4 mps 758 mmHg 35%
    20:00 +29°C° 0 mm 4 mps 758 mmHg 40%
    21:00 +27°C° 0 mm 5 mps 758 mmHg 45%
    22:00 +26°C° 0 mm 4 mps 758 mmHg 46%
    23:00 +25°C° 0 mm 4 mps 758 mmHg 48%

    Day after tomorrow, 29 May, Friday

    Time Temperature Precipitation Wind Pressure Humidity
    00:00 +22°C° 0 mm 3 mps 758 mmHg 50%
    01:00 +23°C° 0 mm 2 mps 758 mmHg 53%
    02:00 +21°C° 0 mm 2 mps 757 mmHg 55%
    03:00 +21°C° 0 mm 1 mps 757 mmHg 58%
    04:00 +22°C° 0 mm 1 mps 757 mmHg 56%
    05:00 +22°C° 0 mm 1 mps 757 mmHg 55%
    06:00 +23°C° 0 mm 1 mps 757 mmHg 53%
    07:00 +25°C° 0 mm 1 mps 756 mmHg 47%
    08:00 +27°C° 0 mm 2 mps 756 mmHg 41%
    09:00 +29°C° 0 mm 2 mps 755 mmHg 35%
    10:00 +31°C° 0 mm 3 mps 755 mmHg 32%
    11:00 +34°C° 0 mm 4 mps 754 mmHg 28%
    12:00 +36°C° 0 mm 4 mps 754 mmHg 25%
    13:00 +36°C° 0 mm 5 mps 753 mmHg 24%
    14:00 +37°C° 0 mm 5 mps 753 mmHg 23%
    15:00 +39°C° 0 mm 6 mps 752 mmHg 23%
    16:00 +38°C° 0 mm 6 mps 752 mmHg 25%
    17:00 +36°C° 0 mm 6 mps 752 mmHg 28%
    18:00 +36°C° 0 mm 6 mps 751 mmHg 31%
    19:00 +33°C° 0 mm 6 mps 752 mmHg 37%
    20:00 +30°C° 0 mm 5 mps 752 mmHg 43%
    21:00 +27°C° 0 mm 5 mps 753 mmHg 50%
    22:00 +26°C° 0 mm 4 mps 753 mmHg 54%
    23:00 +25°C° 0 mm 3 mps 753 mmHg 58%

    30 May, Saturday

    Time Temperature Precipitation Wind Pressure Humidity
    00:00 +24°C° 0 mm 1 mps 753 mmHg 62%
    01:00 +23°C° 0 mm 4 mps 753 mmHg 62%
    02:00 +22°C° 0 mm 6 mps 753 mmHg 62%
    03:00 +22°C° 0 mm 8 mps 753 mmHg 62%
    04:00 +22°C° 0 mm 9 mps 754 mmHg 59%
    05:00 +23°C° 0 mm 10 mps 754 mmHg 57%
    06:00 +23°C° 0 mm 11 mps 755 mmHg 54%
    07:00 +26°C° 0 mm 12 mps 755 mmHg 48%
    08:00 +28°C° 0 mm 12 mps 755 mmHg 43%
    09:00 +29°C° 0 mm 12 mps 755 mmHg 37%
    10:00 +32°C° 0 mm 12 mps 755 mmHg 32%
    11:00 +34°C° 0 mm 11 mps 755 mmHg 26%
    12:00 +36°C° 0 mm 10 mps 756 mmHg 21%
    13:00 +37°C° 0 mm 10 mps 756 mmHg 20%
    14:00 +37°C° 0 mm 9 mps 755 mmHg 20%
    15:00 +38°C° 0 mm 9 mps 755 mmHg 19%
    16:00 +35°C° 0 mm 9 mps 756 mmHg 22%
    17:00 +34°C° 0 mm 9 mps 756 mmHg 24%
    18:00 +33°C° 0 mm 9 mps 756 mmHg 26%
    19:00 +31°C° 0 mm 8 mps 757 mmHg 30%
    20:00 +29°C° 0 mm 8 mps 758 mmHg 33%
    21:00 +27°C° 0 mm 7 mps 758 mmHg 37%
    22:00 +26°C° 0 mm 6 mps 759 mmHg 43%
    23:00 +23°C° 0 mm 4 mps 759 mmHg 49%

    31 May, Sunday

    Time Temperature Precipitation Wind Pressure Humidity
    00:00 +22°C° 0 mm 3 mps 759 mmHg 55%
    01:00 +21°C° 0 mm 3 mps 759 mmHg 57%
    02:00 +21°C° 0 mm 3 mps 759 mmHg 59%
    03:00 +20°C° 0 mm 3 mps 760 mmHg 61%
    04:00 +21°C° 0 mm 2 mps 760 mmHg 59%
    05:00 +21°C° 0 mm 2 mps 760 mmHg 57%
    06:00 +23°C° 0 mm 2 mps 760 mmHg 55%
    07:00 +25°C° 0 mm 2 mps 760 mmHg 51%
    08:00 +27°C° 0 mm 3 mps 760 mmHg 46%
    09:00 +28°C° 0 mm 3 mps 760 mmHg 42%
    10:00 +30°C° 0 mm 4 mps 760 mmHg 39%
    11:00 +32°C° 0 mm 4 mps 760 mmHg 36%
    12:00 +34°C° 0 mm 5 mps 760 mmHg 33%
    13:00 +34°C° 0 mm 5 mps 759 mmHg 33%
    14:00 +34°C° 0 mm 6 mps 759 mmHg 33%
    15:00 +34°C° 0 mm 6 mps 759 mmHg 32%
    16:00 +33°C° 0 mm 6 mps 759 mmHg 34%
    17:00 +32°C° 0 mm 7 mps 759 mmHg 35%
    18:00 +31°C° 0 mm 8 mps 759 mmHg 37%
    19:00 +28°C° 0 mm 7 mps 759 mmHg 41%
    20:00 +26°C° 0 mm 6 mps 759 mmHg 44%
    21:00 +25°C° 0 mm 4 mps 760 mmHg 48%
    22:00 +23°C° 0 mm 4 mps 760 mmHg 49%
    23:00 +22°C° 0 mm 3 mps 760 mmHg 50%

    1 June, Monday

    Time Temperature Precipitation Wind Pressure Humidity
    00:00 +21°C° 0 mm 3 mps 759 mmHg 51%
    01:00 +21°C° 0 mm 3 mps 759 mmHg 52%
    02:00 +20°C° 0 mm 2 mps 759 mmHg 53%
    03:00 +20°C° 0 mm 2 mps 759 mmHg 54%
    04:00 +20°C° 0 mm 2 mps 759 mmHg 52%
    05:00 +22°C° 0 mm 1 mps 759 mmHg 50%
    06:00 +23°C° 0 mm 1 mps 759 mmHg 48%
    07:00 +24°C° 0 mm 2 mps 759 mmHg 43%
    08:00 +26°C° 0 mm 2 mps 759 mmHg 39%
    09:00 +28°C° 0 mm 3 mps 759 mmHg 34%
    10:00 +29°C° 0 mm 3 mps 758 mmHg 33%
    11:00 +30°C° 0 mm 3 mps 758 mmHg 31%
    12:00 +31°C° 0 mm 3 mps 757 mmHg 30%
    13:00 +33°C° 0 mm 3 mps 757 mmHg 29%
    14:00 +34°C° 0 mm 3 mps 756 mmHg 28%
    15:00 +34°C° 0 mm 3 mps 756 mmHg 27%
    16:00 +34°C° 0 mm 3 mps 756 mmHg 28%
    17:00 +34°C° 0 mm 3 mps 756 mmHg 29%
    18:00 +34°C° 0 mm 3 mps 756 mmHg 30%
    19:00 +30°C° 0 mm 3 mps 756 mmHg 35%
    20:00 +28°C° 0 mm 4 mps 756 mmHg 40%
    21:00 +26°C° 0 mm 5 mps 757 mmHg 45%
    22:00 +25°C° 0 mm 4 mps 757 mmHg 47%
    23:00 +23°C° 0 mm 4 mps 756 mmHg 50%
    Show more